HAIYANG-2A

Last updated on Wed Sep 17 2025 00:02:30 GMT+0000 (Coordinated Universal Time)

1 37781U 11043A 25259.62829528 -.00000013 00000+0 30483-4 0 9996 2 37781 99.3372 261.8925 0000648 30.8771 329.2418 13.78825387708981
UTC large
Height (km)
Speed (km/s)
/
Latitude / Longitude
Inclination (degrees)
Orbital Period (minutes)
Azimuth
Elevation
Range (km)
Doppler Factor

Next 0 passes for location: London (51.5072 / 0.1276)

Sorry there are no passes over London.